Simultaneous Nadir Overpasses (SNOs) Predictions

Prediction of SNOs between GOES-14 and AQUA Satellite Orbit:

Table of predicted SNOs for the next 14.0 days since TLE Epoch: 5/14/2022
Index Date Time (GOES-14) GOES-14 Lat,Lon AQUA Lat,Lon Distance(km) Time Diff (sec)
1 05/15/2022 08:28:59 0.07,-104.44 -0.37,-102.46 225.10 80
2 05/15/2022 20:50:20 -0.04,-104.61 -0.66,-107.65 344.20 80
3 05/17/2022 20:35:11 -0.05,-104.61 -0.05,-104.61 1.20 80
4 05/19/2022 20:22:42 -0.05,-104.61 0.57,-101.57 345.33 80
5 05/20/2022 08:43:53 0.03,-104.42 0.53,-106.70 259.33 80
6 05/22/2022 08:34:04 0.03,-104.42 -0.12,-103.66 86.21 80
7 05/22/2022 20:55:25 -0.01,-104.63 -0.89,-108.85 480.21 80
8 05/24/2022 08:21:35 0.04,-104.43 -0.78,-100.63 432.53 80
9 05/24/2022 20:42:55 -0.02,-104.63 -0.28,-105.81 134.09 80
10 05/26/2022 20:27:45 -0.02,-104.64 0.35,-102.76 212.36 80
11 05/27/2022 08:48:55 -0.00,-104.43 0.75,-107.90 394.63 80
